Location: Gesvres
(49.0440°N, 2.8518°E)
Time: 19:15:12
(UTC+00:00)

CZ-4 R/B - Visible Passes

Search period start: 01 October 2023 00:00
Search period end: 11 October 2023 00:00
Orbit: 521 x 582 km, 97.7° (Epoch: 01 October)

Date Brightness Start Highest point End Pass type
(mag) Time Alt. Az. Time Alt. Az. Time Alt. Az.
01 Oct 2.0 19:19:44 10° S 19:23:28 51° W 19:27:12 10° NNW visible
02 Oct 1.8 19:15:58 10° S 19:19:44 56° W 19:23:30 10° NNW visible
03 Oct 1.6 19:12:16 10° S 19:15:59 62° WSW 19:19:46 10° NNW visible
04 Oct 1.5 19:08:44 12° S 19:12:14 69° WSW 19:16:02 10° NNW visible
05 Oct 1.3 19:05:10 13° S 19:08:28 76° WSW 19:12:18 10° NNW visible
06 Oct 1.2 19:01:37 15° SSE 19:04:42 84° WSW 19:08:32 10° NNW visible
07 Oct 1.1 18:58:03 17° SSE 19:00:56 88° ENE 19:04:45 10° NNW visible
08 Oct 1.1 18:54:28 19° SSE 18:57:09 80° ENE 19:00:58 10° NNW visible
09 Oct 1.1 18:50:53 20° SSE 18:53:22 73° ENE 18:57:11 10° N visible
09 Oct 4.4 20:27:43 10° WSW 20:28:38 11° W 20:29:33 10° WNW visible
10 Oct 1.1 18:47:16 22° SSE 18:49:35 65° ENE 18:53:22 10° N visible
10 Oct 4.3 20:23:20 10° WSW 20:24:47 12° W 20:26:15 10° WNW visible
